Weather History for Auburn, AL

Change the Weather History Date:

Sunday, May 10, 2009

  Actual Average Record
Temperature  
Mean Temperature 74 °F -  
Max Temperature 84 °F - 91 °F (1959)
Min Temperature 64 °F - 39 °F (1984)
Cooling Degree Days 9    
Month to date cooling degree days 83  
Year to date cooling degree days 148  
Growing Degree Days 24 (Base 50)    
Moisture  
Dew Point 63 °F    
Average Humidity 75    
Maximum Humidity 94    
Minimum Humidity 48    
Precipitation  
Precipitation 0.46 in - 2.09 in (2006)
Month to date precipitation 1.62  
Year to date precipitation 20.98  
Sea Level Pressure  
Sea Level Pressure 30.09 in    
Wind  
Wind Speed 5 mph (NNW)    
Max Wind Speed 10 mph    
Max Gust Speed 30 mph    
Visibility 10 miles    
Events Thunderstorm    
T = Trace of Precipitation, MM = Missing Value Source: NWS Daily Summary

Daily Weather History Graph

Daily Weather History Graph

Search for Another Location

Airport:

Trip Planner

Search our weather history database for the weather conditions in past years. The results will help you decide how hot, cold, wet, or windy it might be!

Date:

Astronomy

May. 10, 2009 Rise Set
Actual Time 5:46 AM CDT 7:29 PM CDT
Civil Twilight 5:19 AM CDT 7:56 PM CDT
Nautical Twilight 4:47 AM CDT 8:29 PM CDT
Astronomical Twilight 4:13 AM CDT 9:03 PM CDT
Moon 9:21 PM CDT (5/10) 6:25 AM CDT (5/10)
Length of Visible Light 14h 36m
Length of Day
13h 43m
Full, 98% of the Moon is Illuminated
May 10
Full
May 17
Last Quarter
May 24
New
May 30
First Quarter
Jun 7
Full

Hourly Weather History & Observations

Time (CDT) Temp. Heat Index Dew Point Humidity Pressure Visibility Wind Dir Wind Speed Gust Speed Precip Events Conditions
12:15 AM 71.6 °F - 60.8 °F 69% 30.10 in 10.0 mi NNW 10.4 mph - N/A   Partly Cloudy
12:35 AM 69.8 °F - 60.8 °F 73% 30.09 in 10.0 mi NW 6.9 mph - N/A   Clear
12:55 AM 69.8 °F - 60.8 °F 73% 30.09 in 10.0 mi NNW 6.9 mph - N/A   Clear
1:15 AM 68.0 °F - 60.8 °F 78% 30.07 in 10.0 mi WNW 4.6 mph - N/A   Clear
1:35 AM 68.0 °F - 60.8 °F 78% 30.06 in 10.0 mi Calm Calm - N/A   Clear
1:55 AM 66.2 °F - 60.8 °F 83% 30.03 in 10.0 mi South 3.5 mph - N/A   Clear
2:15 AM 66.2 °F - 60.8 °F 83% 30.01 in 10.0 mi SSE 5.8 mph - N/A   Clear
2:35 AM 66.2 °F - 60.8 °F 83% 29.99 in 10.0 mi SE 3.5 mph - N/A   Clear
2:55 AM 66.2 °F - 60.8 °F 83% 29.99 in 10.0 mi Calm Calm - N/A   Clear
3:15 AM 66.2 °F - 60.8 °F 83% 30.01 in 10.0 mi North 11.5 mph - N/A   Clear
3:35 AM 66.2 °F - 60.8 °F 83% 30.03 in 10.0 mi NNW 6.9 mph - N/A   Clear
4:15 AM 64.4 °F - 60.8 °F 88% 30.06 in 10.0 mi WSW 4.6 mph - N/A   Clear
4:35 AM 66.2 °F - 60.8 °F 83% 30.07 in 10.0 mi SW 3.5 mph - N/A   Clear
5:15 AM 64.4 °F - 60.8 °F 88% 30.07 in 10.0 mi Calm Calm - N/A   Clear
5:35 AM 64.4 °F - 60.8 °F 88% 30.08 in 10.0 mi WSW 4.6 mph - N/A   Clear
5:55 AM 64.4 °F - 60.8 °F 88% 30.10 in 10.0 mi West 3.5 mph - N/A   Clear
6:15 AM 66.2 °F - 60.8 °F 83% 30.11 in 10.0 mi WNW 3.5 mph - N/A   Clear
6:55 AM 66.2 °F - 60.8 °F 83% 30.12 in 10.0 mi NW 3.5 mph - N/A   Clear
7:35 AM 69.8 °F - 62.6 °F 78% 30.13 in 10.0 mi NW 6.9 mph - N/A   Clear
7:55 AM 69.8 °F - 62.6 °F 78% 30.13 in 10.0 mi NNW 8.1 mph - N/A   Clear
8:15 AM 71.6 °F - 62.6 °F 73% 30.13 in 10.0 mi North 6.9 mph - N/A   Clear
8:35 AM 71.6 °F - 62.6 °F 73% 30.13 in 10.0 mi NNW 5.8 mph - N/A   Clear
8:55 AM 73.4 °F - 62.6 °F 69% 30.12 in 10.0 mi NNW 4.6 mph - N/A   Clear
9:15 AM 73.4 °F - 62.6 °F 69% 30.12 in 10.0 mi NNW 5.8 mph - N/A   Clear
9:35 AM 75.2 °F - 62.6 °F 65% 30.12 in 10.0 mi NW 3.5 mph - N/A   Clear
9:55 AM 77.0 °F - 62.6 °F 61% 30.12 in 10.0 mi WSW 3.5 mph - N/A   Clear
10:15 AM 78.8 °F - 64.4 °F 61% 30.13 in 10.0 mi Calm Calm - N/A   Clear
10:35 AM 80.6 °F 82.3 °F 64.4 °F 58% 30.13 in 10.0 mi NNW 6.9 mph - N/A   Clear
10:55 AM 78.8 °F - 62.6 °F 57% 30.14 in 10.0 mi NW 8.1 mph - N/A   Clear
11:15 AM 80.6 °F 81.8 °F 62.6 °F 54% 30.14 in 10.0 mi NW 8.1 mph - N/A   Clear
11:35 AM 80.6 °F 81.8 °F 62.6 °F 54% 30.13 in 10.0 mi NNW 6.9 mph - N/A   Clear
11:55 AM 80.6 °F 82.3 °F 64.4 °F 58% 30.13 in 10.0 mi NW 5.8 mph - N/A   Clear
12:15 PM 82.4 °F 83.9 °F 64.4 °F 54% 30.12 in 10.0 mi Calm Calm - N/A   Partly Cloudy
12:35 PM 82.4 °F 83.9 °F 64.4 °F 54% 30.12 in 10.0 mi NW 5.8 mph - N/A   Scattered Clouds
12:55 PM 84.2 °F 85.6 °F 64.4 °F 51% 30.12 in 10.0 mi West 9.2 mph - N/A   Scattered Clouds
1:15 PM 82.4 °F 83.9 °F 64.4 °F 54% 30.11 in 10.0 mi WNW 8.1 mph - N/A   Partly Cloudy
1:35 PM 84.2 °F 85.0 °F 62.6 °F 48% 30.11 in 10.0 mi NW 10.4 mph - N/A   Mostly Cloudy
1:55 PM 82.4 °F 83.4 °F 62.6 °F 51% 30.10 in 10.0 mi West 10.4 mph - N/A   Mostly Cloudy
2:15 PM 84.2 °F 85.0 °F 62.6 °F 48% 30.09 in 10.0 mi WNW 11.5 mph - N/A   Mostly Cloudy
2:35 PM 82.4 °F 83.4 °F 62.6 °F 51% 30.08 in 10.0 mi NW 6.9 mph - N/A   Overcast
2:55 PM 82.4 °F 83.4 °F 62.6 °F 51% 30.07 in 10.0 mi SSW 3.5 mph - N/A   Overcast
3:15 PM 82.4 °F 83.4 °F 62.6 °F 51% 30.08 in 10.0 mi West 9.2 mph - N/A Thunderstorm Mostly Cloudy
3:35 PM 69.8 °F - 62.6 °F 78% 30.13 in 10.0 mi NNW 16.1 mph 29.9 mph N/A Thunderstorm Thunderstorm
3:55 PM 66.2 °F - 62.6 °F 88% 30.14 in 4.0 mi NNW 9.2 mph 25.3 mph 0.34 in Thunderstorm Thunderstorm
4:15 PM 66.2 °F - 62.6 °F 88% 30.11 in 10.0 mi NNE 8.1 mph - 0.09 in Thunderstorm Scattered Clouds
4:35 PM 66.2 °F - 64.4 °F 94% 30.09 in 9.0 mi NE 5.8 mph - 0.12 in Thunderstorm Thunderstorm
4:55 PM 69.8 °F - 66.2 °F 88% 30.09 in 10.0 mi NE 10.4 mph - 0.12 in   Partly Cloudy
5:15 PM 69.8 °F - 64.4 °F 83% 30.08 in 10.0 mi NNE 9.2 mph - N/A   Clear
5:35 PM 71.6 °F - 64.4 °F 78% 30.08 in 10.0 mi NNE 8.1 mph - N/A   Partly Cloudy
5:55 PM 71.6 °F - 64.4 °F 78% 30.07 in 10.0 mi NE 8.1 mph - N/A   Partly Cloudy
6:15 PM 69.8 °F - 64.4 °F 83% 30.07 in 10.0 mi NE 5.8 mph - N/A   Clear
6:35 PM 69.8 °F - 64.4 °F 83% 30.06 in 10.0 mi NE 5.8 mph - N/A   Clear
6:55 PM 69.8 °F - 64.4 °F 83% 30.06 in 10.0 mi NNE 4.6 mph - N/A   Clear
7:15 PM 68.0 °F - 64.4 °F 88% 30.07 in 10.0 mi NNE 4.6 mph - N/A   Clear
7:35 PM 66.2 °F - 64.4 °F 94% 30.07 in 10.0 mi NNE 3.5 mph - N/A   Clear
7:55 PM 66.2 °F - 64.4 °F 94% 30.07 in 10.0 mi North 5.8 mph - N/A   Clear
8:15 PM 66.2 °F - 64.4 °F 94% 30.08 in 10.0 mi North 3.5 mph - N/A   Clear
8:35 PM 66.2 °F - 64.4 °F 94% 30.08 in 10.0 mi NNE 5.8 mph - N/A   Clear
8:55 PM 66.2 °F - 64.4 °F 94% 30.08 in 10.0 mi NE 5.8 mph - N/A   Clear
9:15 PM 66.2 °F - 64.4 °F 94% 30.08 in 10.0 mi NE 4.6 mph - N/A   Clear
9:35 PM 66.2 °F - 64.4 °F 94% 30.08 in 10.0 mi ENE 4.6 mph - N/A   Clear
9:55 PM 66.2 °F - 64.4 °F 94% 30.08 in 10.0 mi East 4.6 mph - N/A   Clear
10:15 PM 66.2 °F - 64.4 °F 94% 30.07 in 10.0 mi East 3.5 mph - N/A   Clear
10:35 PM 66.2 °F - 64.4 °F 94% 30.08 in 10.0 mi Calm Calm - N/A   Clear
10:55 PM 66.2 °F - 64.4 °F 94% 30.08 in 10.0 mi East 3.5 mph - N/A   Clear
11:15 PM 66.2 °F - 64.4 °F 94% 30.07 in 10.0 mi Calm Calm - N/A   Clear
11:35 PM 66.2 °F - 64.4 °F 94% 30.07 in 10.0 mi Calm Calm - N/A   Clear
11:55 PM 66.2 °F - 62.6 °F 88% 30.08 in 10.0 mi Calm Calm - N/A   Clear